NKS1838 KDTW-KDFW

Flight info

Callsign NKS1838
Flight time N/A
Altitude 36000
Route SNDRS3 BGHRT STL RZC FSM RRNET SEEVR4
Aircraft A21N/M-SDE2E3FGHIRWXY/LB1

Departure

Time 2026-05-05 13:06
Airport Detroit Metropolitan Wayne County Airport (KDTW)

Arrival

Time N/A
Airport Dallas Fort Worth International Airport (KDFW)
Time Latitude Longitude Altitude Speed Heading
2026-05-05 12:20 42.21060 -83.35574 599 ft 0 kts 298°
2026-05-05 12:22 42.21371 -83.35342 648 ft 0 kts 298°
2026-05-05 12:53 42.21360 -83.35317 648 ft 3 kts 311°
2026-05-05 12:53 42.21340 -83.35297 646 ft 3 kts 359°
2026-05-05 12:53 42.21329 -83.35299 648 ft 0 kts 25°
2026-05-05 12:59 42.21359 -83.35279 647 ft 8 kts 25°
2026-05-05 12:59 42.21409 -83.35248 646 ft 6 kts 25°
2026-05-05 13:00 42.21503 -83.35218 647 ft 13 kts
2026-05-05 13:00 42.21521 -83.35217 646 ft 5 kts
2026-05-05 13:01 42.21607 -83.35018 646 ft 11 kts 46°
2026-05-05 13:01 42.21649 -83.34960 646 ft 1 kts 45°
2026-05-05 13:01 42.21675 -83.34931 647 ft 9 kts 40°
2026-05-05 13:01 42.21737 -83.34850 647 ft 16 kts 47°
2026-05-05 13:02 42.21824 -83.34725 646 ft 7 kts 64°
2026-05-05 13:02 42.21837 -83.34631 646 ft 14 kts 86°
2026-05-05 13:02 42.21871 -83.34495 646 ft 18 kts 38°
2026-05-05 13:02 42.22005 -83.34400 646 ft 25 kts 26°
2026-05-05 13:03 42.22154 -83.34279 645 ft 26 kts 27°
2026-05-05 13:03 42.22329 -83.34149 646 ft 32 kts 30°
2026-05-05 13:03 42.22541 -83.33994 646 ft 37 kts 30°
2026-05-05 13:03 42.22740 -83.33851 646 ft 31 kts 27°
2026-05-05 13:04 42.22843 -83.33774 646 ft 2 kts 43°
2026-05-05 13:04 42.22840 -83.33671 646 ft 22 kts 128°
2026-05-05 13:04 42.22809 -83.33651 645 ft 7 kts 162°
2026-05-05 13:04 42.22762 -83.33661 645 ft 0 kts 206°
2026-05-05 13:05 42.22763 -83.33660 645 ft 0 kts 206°
2026-05-05 13:05 42.22719 -83.33690 648 ft 42 kts 207°
2026-05-05 13:05 42.22105 -83.34164 648 ft 154 kts 209°
2026-05-05 13:05 42.20997 -83.34893 1225 ft 197 kts 206°
2026-05-05 13:06 42.19572 -83.35736 1760 ft 255 kts 206°
2026-05-05 13:06 42.17765 -83.36778 2476 ft 301 kts 205°
2026-05-05 13:06 42.15863 -83.37665 3308 ft 279 kts 200°
2026-05-05 13:06 42.14044 -83.38325 4251 ft 269 kts 199°
2026-05-05 13:07 42.12276 -83.38936 6021 ft 254 kts 200°
2026-05-05 13:07 42.10576 -83.39540 7843 ft 251 kts 202°
2026-05-05 13:07 42.08888 -83.40186 9252 ft 258 kts 204°
2026-05-05 13:07 42.07227 -83.41116 10586 ft 263 kts 213°
2026-05-05 13:08 42.05613 -83.42481 11428 ft 285 kts 221°
2026-05-05 13:08 42.03959 -83.44146 12165 ft 309 kts 221°
2026-05-05 13:08 42.02203 -83.45897 13247 ft 319 kts 221°
2026-05-05 13:08 42.00397 -83.47674 14397 ft 325 kts 221°
2026-05-05 13:09 41.98549 -83.49482 15570 ft 329 kts 221°
2026-05-05 13:09 41.96817 -83.51227 16742 ft 331 kts 222°
2026-05-05 13:09 41.95012 -83.53101 17878 ft 335 kts 222°
2026-05-05 13:09 41.93170 -83.55025 18963 ft 337 kts 223°
2026-05-05 13:10 41.91298 -83.56972 19919 ft 343 kts 223°
2026-05-05 13:10 41.89394 -83.58943 20848 ft 349 kts 224°
2026-05-05 13:10 41.87460 -83.60937 21797 ft 354 kts 224°
2026-05-05 13:10 41.85495 -83.62958 22727 ft 359 kts 225°
2026-05-05 13:11 41.83490 -83.65017 23595 ft 365 kts 225°
2026-05-05 13:11 41.81468 -83.67093 24372 ft 368 kts 225°
2026-05-05 13:11 41.79407 -83.69213 25003 ft 377 kts 225°
2026-05-05 13:11 41.78024 -83.70633 25498 ft 379 kts 225°
2026-05-05 13:12 41.75210 -83.73514 26535 ft 383 kts 225°
2026-05-05 13:12 41.73804 -83.74953 27010 ft 386 kts 225°
2026-05-05 13:12 41.71652 -83.77155 27721 ft 390 kts 225°
2026-05-05 13:12 41.69446 -83.79307 28386 ft 397 kts 221°
2026-05-05 13:13 41.67069 -83.81250 29037 ft 403 kts 218°
2026-05-05 13:13 41.64652 -83.83184 29654 ft 407 kts 219°
2026-05-05 13:13 41.62206 -83.85144 30225 ft 410 kts 219°
2026-05-05 13:13 41.59752 -83.87110 30772 ft 413 kts 219°
2026-05-05 13:14 41.57277 -83.89092 31428 ft 413 kts 219°
2026-05-05 13:14 41.54833 -83.91043 32302 ft 407 kts 220°
2026-05-05 13:14 41.52435 -83.92952 33387 ft 395 kts 220°
2026-05-05 13:14 41.50090 -83.94819 34278 ft 389 kts 221°
2026-05-05 13:15 41.47767 -83.96684 34687 ft 392 kts 221°
2026-05-05 13:15 41.45429 -83.98563 35133 ft 394 kts 221°
2026-05-05 13:15 41.43069 -84.00454 35586 ft 395 kts 220°
2026-05-05 13:15 41.40713 -84.02335 35703 ft 395 kts 220°
2026-05-05 13:16 41.35995 -84.06086 35759 ft 394 kts 221°
2026-05-05 13:16 41.31283 -84.09834 35776 ft 394 kts 221°
2026-05-05 13:17 41.26781 -84.13842 35782 ft 381 kts 232°
2026-05-05 13:17 41.23689 -84.19290 35783 ft 363 kts 250°
2026-05-05 13:18 41.21817 -84.25470 35788 ft 361 kts 253°
2026-05-05 13:18 41.19974 -84.31647 35780 ft 357 kts 253°
2026-05-05 13:19 41.18135 -84.37778 35782 ft 357 kts 253°
2026-05-05 13:19 41.16296 -84.43898 35784 ft 357 kts 253°
2026-05-05 13:20 41.14450 -84.50027 35785 ft 357 kts 253°
2026-05-05 13:20 41.12600 -84.56150 35783 ft 357 kts 253°
2026-05-05 13:21 41.10754 -84.62274 35791 ft 356 kts 255°
2026-05-05 13:21 41.09453 -84.68559 35811 ft 352 kts 261°
2026-05-05 13:22 41.08400 -84.74897 35805 ft 352 kts 261°
2026-05-05 13:22 41.07332 -84.81214 35789 ft 352 kts 261°
2026-05-05 13:23 41.06258 -84.87544 35811 ft 351 kts 261°
2026-05-05 13:23 41.05185 -84.93850 35795 ft 351 kts 261°
2026-05-05 13:24 41.04112 -85.00130 35802 ft 351 kts 261°
2026-05-05 13:24 41.03045 -85.06366 35824 ft 350 kts 260°
2026-05-05 13:25 41.01961 -85.12655 35813 ft 349 kts 261°
2026-05-05 13:25 41.00889 -85.18876 35810 ft 349 kts 261°
2026-05-05 13:26 40.99801 -85.25165 35810 ft 349 kts 261°
2026-05-05 13:26 40.98721 -85.31383 35826 ft 348 kts 261°
2026-05-05 13:27 40.97632 -85.37636 35820 ft 348 kts 261°
2026-05-05 13:27 40.96543 -85.43871 35823 ft 348 kts 261°
2026-05-05 13:28 40.95450 -85.50102 35829 ft 347 kts 261°
2026-05-05 13:28 40.94355 -85.56323 35826 ft 347 kts 261°
2026-05-05 13:29 40.93261 -85.62515 35825 ft 346 kts 260°
2026-05-05 13:29 40.92163 -85.68713 35825 ft 346 kts 260°
2026-05-05 13:30 40.91062 -85.74904 35827 ft 345 kts 260°
2026-05-05 13:30 40.89960 -85.81087 35829 ft 345 kts 260°
2026-05-05 13:31 40.88855 -85.87257 35846 ft 345 kts 260°
2026-05-05 13:31 40.88032 -85.93480 35855 ft 344 kts 264°
2026-05-05 13:32 40.87372 -85.99739 35860 ft 344 kts 264°
2026-05-05 13:32 40.86706 -86.05983 35863 ft 344 kts 264°
2026-05-05 13:33 40.86032 -86.12240 35865 ft 344 kts 264°
2026-05-05 13:33 40.85357 -86.18481 35870 ft 344 kts 264°
2026-05-05 13:34 40.84678 -86.24727 35863 ft 343 kts 264°
2026-05-05 13:34 40.84001 -86.30913 35846 ft 342 kts 264°
2026-05-05 13:35 40.83318 -86.37133 35848 ft 342 kts 264°
2026-05-05 13:35 40.82632 -86.43342 35846 ft 341 kts 264°
2026-05-05 13:36 40.81943 -86.49547 35846 ft 341 kts 264°
2026-05-05 13:36 40.81251 -86.55749 35847 ft 342 kts 264°
2026-05-05 13:37 40.80557 -86.61949 35848 ft 341 kts 263°
2026-05-05 13:37 40.79858 -86.68146 35847 ft 341 kts 263°
2026-05-05 13:38 40.79156 -86.74338 35846 ft 341 kts 263°
2026-05-05 13:38 40.78450 -86.80534 35852 ft 341 kts 263°
2026-05-05 13:39 40.77742 -86.86727 35849 ft 341 kts 263°
2026-05-05 13:39 40.77031 -86.92912 35849 ft 341 kts 263°
2026-05-05 13:40 40.76316 -86.99110 35845 ft 342 kts 263°
2026-05-05 13:40 40.75596 -87.05303 35848 ft 342 kts 263°
2026-05-05 13:41 40.74871 -87.11518 35857 ft 343 kts 263°
2026-05-05 13:41 40.74142 -87.17741 35862 ft 343 kts 263°
2026-05-05 13:42 40.73410 -87.23958 35867 ft 344 kts 263°
2026-05-05 13:42 40.72675 -87.30166 35869 ft 344 kts 263°
2026-05-05 13:43 40.71935 -87.36394 35860 ft 345 kts 262°
2026-05-05 13:43 40.71188 -87.42649 35873 ft 345 kts 262°
2026-05-05 13:44 40.70436 -87.48912 35877 ft 346 kts 262°
2026-05-05 13:44 40.69681 -87.55168 35877 ft 346 kts 262°
2026-05-05 13:45 40.68921 -87.61440 35884 ft 346 kts 262°
2026-05-05 13:45 40.68158 -87.67712 35884 ft 346 kts 262°
2026-05-05 13:46 40.67393 -87.73970 35869 ft 347 kts 262°
2026-05-05 13:46 40.66621 -87.80250 35874 ft 347 kts 262°
2026-05-05 13:47 40.65847 -87.86526 35880 ft 348 kts 262°
2026-05-05 13:47 40.64496 -87.92660 35880 ft 353 kts 250°
2026-05-05 13:48 40.61782 -87.98138 35878 ft 365 kts 236°
2026-05-05 13:48 40.58400 -88.03105 35885 ft 365 kts 236°
2026-05-05 13:49 40.55025 -88.08105 35895 ft 365 kts 236°
2026-05-05 13:49 40.51648 -88.13102 35888 ft 366 kts 236°
2026-05-05 13:50 40.48258 -88.18102 35896 ft 367 kts 236°
2026-05-05 13:50 40.44878 -88.23078 35894 ft 367 kts 236°
2026-05-05 13:51 40.41488 -88.28062 35902 ft 367 kts 236°
2026-05-05 13:51 40.38077 -88.33068 35905 ft 368 kts 236°
2026-05-05 13:52 40.34665 -88.38066 35904 ft 368 kts 236°
2026-05-05 13:52 40.31251 -88.43061 35904 ft 368 kts 236°
2026-05-05 13:53 40.28398 -88.47228 35900 ft 369 kts 236°
2026-05-05 13:53 40.24951 -88.52253 35878 ft 370 kts 236°
2026-05-05 13:54 40.21533 -88.57229 35889 ft 370 kts 236°
2026-05-05 13:54 40.18086 -88.62241 35892 ft 371 kts 236°
2026-05-05 13:55 40.14639 -88.67244 35898 ft 371 kts 236°
2026-05-05 13:55 40.11181 -88.72254 35896 ft 371 kts 236°
2026-05-05 13:56 40.07721 -88.77259 35908 ft 371 kts 236°
2026-05-05 13:56 40.04264 -88.82250 35911 ft 371 kts 236°
2026-05-05 13:57 40.00811 -88.87227 35899 ft 370 kts 236°
2026-05-05 13:57 39.97348 -88.92213 35907 ft 370 kts 236°
2026-05-05 13:58 39.93896 -88.97174 35908 ft 371 kts 236°
2026-05-05 13:58 39.90437 -89.02136 35911 ft 371 kts 236°
2026-05-05 13:59 39.85239 -89.09579 35901 ft 371 kts 236°
2026-05-05 14:00 39.80016 -89.17039 35865 ft 372 kts 236°
2026-05-05 14:00 39.76525 -89.22002 35906 ft 372 kts 237°
2026-05-05 14:01 39.73039 -89.26968 35901 ft 373 kts 237°
2026-05-05 14:01 39.69546 -89.31931 35909 ft 373 kts 237°
2026-05-05 14:02 39.66031 -89.36916 35916 ft 374 kts 237°
2026-05-05 14:02 39.62515 -89.41897 35921 ft 375 kts 237°
2026-05-05 14:03 39.58987 -89.46885 35926 ft 375 kts 237°
2026-05-05 14:03 39.55450 -89.51868 35921 ft 375 kts 238°
2026-05-05 14:04 39.51926 -89.56840 35932 ft 375 kts 237°
2026-05-05 14:04 39.48390 -89.61818 35919 ft 375 kts 237°
2026-05-05 14:05 39.44861 -89.66776 35911 ft 375 kts 237°
2026-05-05 14:05 39.41323 -89.71739 35898 ft 375 kts 237°
2026-05-05 14:06 39.37795 -89.76654 35885 ft 367 kts 236°
2026-05-05 14:06 39.34311 -89.81304 35876 ft 351 kts 237°
2026-05-05 14:07 39.31034 -89.85822 35889 ft 338 kts 238°
2026-05-05 14:07 39.27917 -89.90207 35886 ft 329 kts 239°
2026-05-05 14:08 39.24868 -89.94498 35889 ft 322 kts 239°
2026-05-05 14:08 39.21871 -89.98704 35895 ft 316 kts 239°
2026-05-05 14:09 39.18918 -90.02834 35891 ft 311 kts 239°
2026-05-05 14:09 39.16002 -90.06897 35892 ft 306 kts 239°
2026-05-05 14:10 39.13130 -90.10893 35892 ft 302 kts 240°
2026-05-05 14:10 39.11706 -90.12873 35853 ft 300 kts 239°
2026-05-05 14:10 39.10304 -90.14821 35893 ft 297 kts 240°
2026-05-05 14:11 39.08904 -90.16764 35889 ft 296 kts 240°
2026-05-05 14:11 39.07506 -90.18702 35891 ft 295 kts 240°
2026-05-05 14:11 39.06108 -90.20638 35890 ft 294 kts 240°
2026-05-05 14:11 39.04721 -90.22557 35892 ft 293 kts 240°
2026-05-05 14:12 39.03351 -90.24450 35895 ft 291 kts 240°
2026-05-05 14:12 39.01980 -90.26348 35885 ft 285 kts 242°
2026-05-05 14:12 39.00918 -90.28328 35827 ft 253 kts 256°
2026-05-05 14:12 39.00280 -90.30337 35708 ft 238 kts 256°
2026-05-05 14:13 38.99395 -90.32125 35537 ft 239 kts 244°
2026-05-05 14:13 38.98080 -90.33508 35237 ft 251 kts 231°
2026-05-05 14:13 38.96489 -90.34615 34520 ft 272 kts 221°
2026-05-05 14:13 38.94636 -90.35390 34138 ft 280 kts 217°
2026-05-05 14:14 38.92783 -90.36129 33405 ft 285 kts 217°
2026-05-05 14:14 38.90858 -90.36851 32773 ft 282 kts 221°
2026-05-05 14:14 38.89056 -90.37843 32174 ft 283 kts 218°
2026-05-05 14:14 38.87084 -90.38417 31296 ft 303 kts 205°
2026-05-05 14:15 38.84849 -90.38825 27124 ft 359 kts 202°
2026-05-05 14:15 38.82087 -90.39668 23181 ft 447 kts 204°
2026-05-05 14:15 38.79177 -90.40453 23455 ft 405 kts 189°
2026-05-05 14:15 38.76500 -90.40195 23692 ft 372 kts 187°
2026-05-05 14:16 38.73966 -90.40323 21968 ft 369 kts 197°
2026-05-05 14:16 38.71548 -90.41558 18926 ft 394 kts 224°
2026-05-05 14:16 38.69768 -90.44186 18053 ft 375 kts 248°
2026-05-05 14:16 38.69082 -90.47102 18759 ft 319 kts 264°
2026-05-05 14:17 38.68861 -90.49855 18071 ft 314 kts 267°
2026-05-05 14:17 38.68670 -90.52689 16720 ft 327 kts 270°
2026-05-05 14:17 38.68785 -90.55682 15241 ft 346 kts 282°
2026-05-05 14:17 38.69341 -90.58658 14658 ft 336 kts 281°
2026-05-05 14:18 38.69298 -90.61565 13843 ft 331 kts 262°
2026-05-05 14:18 38.68778 -90.64470 12895 ft 333 kts 255°
2026-05-05 14:18 38.67843 -90.67084 12423 ft 314 kts 243°
2026-05-05 14:18 38.66564 -90.69300 11477 ft 309 kts 232°
2026-05-05 14:19 38.65158 -90.71392 10498 ft 306 kts 234°
2026-05-05 14:19 38.63884 -90.73458 10005 ft 285 kts 233°
2026-05-05 14:19 38.62518 -90.75215 9246 ft 277 kts 225°
2026-05-05 14:19 38.61224 -90.76997 8451 ft 270 kts 236°
2026-05-05 14:20 38.60074 -90.78883 7609 ft 268 kts 234°
2026-05-05 14:20 38.59006 -90.80823 6823 ft 267 kts 240°
2026-05-05 14:20 38.58225 -90.82797 6637 ft 242 kts 248°
2026-05-05 14:20 38.57562 -90.84891 5644 ft 256 kts 252°
2026-05-05 14:21 38.57156 -90.86970 5474 ft 237 kts 259°
2026-05-05 14:21 38.56900 -90.89006 5302 ft 220 kts 263°
2026-05-05 14:21 38.56720 -90.90928 4812 ft 220 kts 261°
2026-05-05 14:21 38.56173 -90.92819 3885 ft 240 kts 243°
2026-05-05 14:22 38.55411 -90.94758 3200 ft 248 kts 253°
2026-05-05 14:22 38.55188 -90.96966 2319 ft 254 kts 283°
2026-05-05 14:22 38.55604 -90.99172 1553 ft 252 kts 297°
2026-05-05 14:22 38.56309 -91.01032 1593 ft 220 kts 306°
2026-05-05 14:23 38.57104 -91.02568 1560 ft 196 kts 315°
2026-05-05 14:23 38.57893 -91.03774 1766 ft 161 kts 325°
2026-05-05 14:23 38.58672 -91.04673 1670 ft 147 kts 329°
2026-05-05 14:23 38.59486 -91.05511 1291 ft 152 kts 331°
2026-05-05 14:24 38.60213 -91.06485 1008 ft 157 kts 309°
2026-05-05 14:24 38.60681 -91.07821 734 ft 163 kts 292°
2026-05-05 14:24 38.60513 -91.09145 646 ft 153 kts 244°
2026-05-05 14:24 38.60161 -91.10306 569 ft 134 kts 258°
2026-05-05 14:25 38.59983 -91.10889 467 ft 0 kts 257°
2026-05-05 14:25 38.59983 -91.10890 478 ft 0 kts 257°
2026-05-05 14:25 38.59983 -91.10892 479 ft 0 kts 257°
2026-05-05 14:29 38.59983 -91.10893 483 ft 0 kts 257°
2026-05-05 14:30 38.59982 -91.10894 483 ft 0 kts 257°
2026-05-05 14:30 38.59982 -91.10895 483 ft 0 kts 257°
2026-05-05 14:31 38.59982 -91.10898 483 ft 0 kts 257°
2026-05-05 14:31 38.59981 -91.10902 477 ft 1 kts 257°
2026-05-05 14:31 38.59980 -91.10909 479 ft 1 kts 257°
2026-05-05 14:31 38.59978 -91.10918 483 ft 1 kts 258°
2026-05-05 14:32 38.59977 -91.10925 483 ft 1 kts 258°
2026-05-05 14:32 38.59976 -91.10932 483 ft 1 kts 258°
2026-05-05 14:32 38.59975 -91.10941 484 ft 1 kts 259°
2026-05-05 14:32 38.59973 -91.10949 484 ft 1 kts 259°
2026-05-05 14:33 38.59972 -91.10956 484 ft 1 kts 259°
2026-05-05 14:33 38.59971 -91.10965 479 ft 1 kts 260°
2026-05-05 14:33 38.59970 -91.10974 481 ft 1 kts 260°
2026-05-05 14:33 38.59968 -91.10985 481 ft 1 kts 261°
2026-05-05 14:34 38.59967 -91.10998 484 ft 2 kts 261°
2026-05-05 14:34 38.59965 -91.11013 484 ft 2 kts 262°
2026-05-05 14:34 38.59964 -91.11023 484 ft 2 kts 262°
2026-05-05 14:34 38.59961 -91.11047 484 ft 2 kts 262°
2026-05-05 14:35 38.59960 -91.11059 484 ft 2 kts 263°
2026-05-05 14:35 38.59958 -91.11079 484 ft 2 kts 263°
2026-05-05 14:35 38.59956 -91.11099 479 ft 2 kts 263°
2026-05-05 14:35 38.59955 -91.11120 478 ft 2 kts 264°
2026-05-05 14:36 38.59953 -91.11139 484 ft 2 kts 264°
2026-05-05 14:36 38.59951 -91.11158 484 ft 2 kts 264°
2026-05-05 14:36 38.59950 -91.11180 484 ft 3 kts 265°
2026-05-05 14:36 38.59948 -91.11202 484 ft 3 kts 265°
2026-05-05 14:37 38.59947 -91.11225 482 ft 3 kts 265°
2026-05-05 14:37 38.59945 -91.11250 481 ft 3 kts 266°
2026-05-05 14:37 38.59944 -91.11276 477 ft 3 kts 266°
2026-05-05 14:37 38.59943 -91.11305 477 ft 3 kts 267°
2026-05-05 14:38 38.59942 -91.11335 477 ft 3 kts 267°
2026-05-05 14:38 38.59941 -91.11366 478 ft 4 kts 268°
2026-05-05 14:38 38.59940 -91.11399 480 ft 4 kts 268°
2026-05-05 14:38 38.59939 -91.11432 478 ft 4 kts 268°
2026-05-05 14:39 38.59939 -91.11466 479 ft 4 kts 269°
2026-05-05 14:39 38.59938 -91.11500 479 ft 4 kts 269°
2026-05-05 14:39 38.59938 -91.11535 481 ft 4 kts 270°
2026-05-05 14:39 38.59938 -91.11557 479 ft 4 kts 270°